EHI
0 0 0 0 0 0 0 0 0 0 0 0 0 0 0 0 0 0 0 0 0 0 0 0 0 0 0 0 0 0 0 0 0 0 0 0 0 0 0 0 0 0 0
0 0 0 0 0 0 0 0 0 0 0 0 0 0 0 0 0 0 0 0 0 0 0 0 0 0 0 0 0 0 0 0 0 0 0 0 0 0 0 0 0 0 0
0 0 0 0 0 0 0 0 0 0 0 0 0 0 0 0 0 0 0 0 0 0 0 0 0 0 1 1 0 0 0 0 0 0 0 0 0 0 0 0 0 0 0
0 0 0 0 0 0 0 0 0 0 0 0 0 0 0 0 0 0 0 0 0 0 0 0 0 0 1 2 1 0 0 0 0 0 0 0 0 0 0 0 0 0 0
0 0 0 0 0 0 0 0 0 0 0 0 0 0 0 0 0 0 0 0 0 0 0 0 0 0 1 2 1 0 0 0 0 0 0 0 0 0 0 0 0 0 0
0 0 0 0 0 0 0 0 0 0 0 0 0 0 0 0 0 0 0 0 0 0 0 0 0 0 1 1 1 0 0 0 0 0 0 0 0 0 0 0 0 0 0
1 0 0 0 0 0 0 0 0 0 0 0 0 0 0 0 0 0 0 0 0 0 0 0 0 0 0 0 0 0 0 0 0 0 0 0 0 0 0 0 0 0 0
1 0 0 0 0 0 0 0 0 0 0 0 0 0 0 0 0 0 0 0 0 0 0 0 0 0 0 0 0 0 0 0 0 0 0 0 0 0 0 0 0 0 0
1 0 0 0 0 0 0 0 0 0 0 0 0 0 0 0 0 0 0 0 0 0 0 0 0 0 0 0 0 0 0 0 0 0 0 0 0 0 0 0 0 0 0
0 0 0 0 0 0 0 0 0 0 0 0 0 0 0 0 0 0 0 0 0 0 0 0 0 0 0 0 0 0 0 0 0 0 0 0 0 0 0 0 0 0 0
0 0 0 0 0 0 0 0 0 0 0 0 0 0 0 0 0 0 0 0 0 0 0 0 0 0 0 0 0 0 0 0 0 0 0 0 0 0 0 0 0 0 0
0 0 0 0 0 0 0 0 0 0 0 0 0 0 0 0 0 0 0 0 0 0 0 0 0 0 0 0 0 0 0 0 0 0 0 0 0 0 0 0 0 0 0
0 0 0 0 0 0 0 0 0 0 0 0 0 0 0 0 0 0 0 0 0 0 0 0 0 0 0 0 0 0 0 0 0 0 0 0 0 0 0 0 0 0 0
0 0 0 0 0 0 0 0 0 0 0 0 0 0 0 0 0 0 0 0 0 0 0 0 0 0 0 0 0 0 0 0 0 0 0 0 0 0 0 0 0 0 0
0 0 0 0 0 0 0 0 0 0 0 0 0 0 0 0 0 0 0 0 0 0 0 0 0 0 0 0 0 0 0 0 0 0 0 0 0 0 0 0 0 0 0
0 0 0 0 0 0 0 0 0 0 0 0 0 0 0 0 0 0 0 0 0 0 0 0 0 0 0 0 0 0 0 0 0 0 0 0 0 0 0 0 0 0 0
0 0 0 0 0 0 0 0 0 0 0 0 0 0 0 0 0 0 0 0 0 0 0 0 0 0 0 0 0 0 0 0 0 0 0 0 0 0 0 0 0 0 0
0 0 0 0 0 0 0 0 0 0 0 0 0 0 0 0 0 0 0 0 0 0 0 0 0 0 0 0 0 0 0 0 0 0 0 0 0 0 0 0 0 0 0
0 0 0 0 0 0 0 0 0 0 0 0 0 0 0 0 0 0 0 0 0 0 0 0 0 0 0 0 0 0 0 0 0 0 0 0 0 0 0 0 0 0 0
0 0 0 0 0 0 0 0 0 0 0 0 0 0 0 0 0 0 0 0 0 0 0 0 0 0 0 0 0 0 0 0 0 0 0 0 0 0 0 0 0 0 0
0 0 0 0 0 0 0 0 0 0 0 0 0 0 0 0 0 0 0 0 0 0 0 0 0 0 0 0 0 0 0 0 0 0 0 0 0 0 0 0 0 0 0
0 0 0 0 0 0 0 0 0 0 0 0 0 0 0 0 0 0 0 0 0 0 0 0 0 0 0 0 0 0 0 0 0 0 0 0 0 0 0 0 0 0 0
0 0 0 0 0 0 0 0 0 0 0 0 0 0 0 0 0 0 0 0 0 0 0 0 0 0 0 0 0 0 0 0 0 0 0 0 0 0 0 0 0 0 0
0 0 0 0 0 0 0 0 0 0 0 0 0 0 0 0 0 0 0 0 0 0 0 0 0 0 0 0 0 0 0 0 0 0 0 0 0 0 0 0 0 0 0
0 0 0 0 0 0 0 0 0 0 0 0 0 0 0 0 0 0 0 0 0 0 0 0 0 0 0 0 0 0 0 0 0 0 0 0 0 0 0 0 0 0 0
0 0 0 0 0 0 0 0 0 0 0 0 0 0 0 0 0 0 0 0 0 0 0 0 0 0 0 0 0 0 0 0 0 0 0 0 0 0 0 0 0 0 0
Wind_Speed
2 1 1 1 1 1 1 2 2 2 2 2 2 2 3 3 3 3 2 6 6 5 4 4 3 3 3 4 5 5 5 5 6 6 5 5 5 5 5 4 3 3 3
2 1 1 1 1 1 1 1 1 1 1 1 2 2 2 2 2 2 2 2 4 4 4 2 2 2 2 3 4 4 4 4 4 4 4 4 4 4 4 3 3 3 2
2 2 1 1 1 1 1 1 1 1 1 2 2 2 2 2 2 2 2 1 1 3 4 3 1 1 2 3 3 3 3 3 4 3 3 3 3 3 3 4 3 3 3
2 1 1 1 1 1 1 1 1 1 1 1 1 1 1 1 1 1 1 1 1 1 2 3 2 2 1 2 2 2 3 3 3 2 2 2 2 2 3 2 3 2 2
1 1 1 1 1 1 1 1 1 1 1 1 1 0 1 1 1 1 1 1 1 0 0 2 2 1 2 1 1 1 2 2 2 2 2 2 2 2 2 2 2 3 2
1 1 1 1 0 0 0 0 1 1 0 0 1 1 1 1 1 0 0 0 0 0 0 0 1 1 1 1 1 1 0 1 1 1 1 1 1 1 1 1 2 2 3
1 1 1 1 0 0 0 0 0 0 0 1 1 1 1 1 1 0 0 0 0 0 0 1 0 1 1 0 1 1 1 1 0 0 1 1 1 1 1 1 2 2 3
2 2 2 1 1 1 1 1 1 0 0 1 1 0 1 1 1 1 0 0 1 1 1 0 0 1 1 1 0 1 1 1 1 1 1 1 1 2 2 2 2 3 3
2 2 2 2 2 2 2 2 2 2 1 1 1 1 1 2 1 1 1 1 1 1 1 1 1 2 1 1 1 1 1 1 2 2 2 2 2 2 3 3 3 3 3
2 2 3 3 3 2 2 2 2 1 2 2 1 1 1 1 1 1 1 1 1 1 1 2 1 1 2 0 1 1 1 1 2 3 3 3 3 4 4 4 4 4 4
3 2 3 3 3 2 3 2 2 2 2 2 2 1 1 1 1 2 2 2 1 1 1 1 1 1 1 1 1 0 1 2 3 4 4 4 3 3 4 4 4 5 5
2 3 3 3 3 3 3 3 2 3 3 3 2 2 2 2 2 1 2 3 2 2 2 1 1 1 1 1 1 1 1 2 4 5 5 5 4 4 4 4 5 5 5
2 3 3 3 3 3 3 3 3 3 3 4 4 3 3 2 2 2 2 2 3 2 2 1 1 1 1 1 1 2 2 2 3 5 6 6 5 5 5 5 5 5 5
3 3 3 3 3 3 3 3 3 3 3 4 4 4 3 3 2 2 2 2 3 3 2 2 1 1 0 0 3 4 2 3 4 4 5 5 5 5 5 5 6 6 6
3 3 3 3 3 4 4 4 3 4 3 3 4 4 3 3 3 2 2 2 3 4 4 2 2 1 1 1 3 2 2 4 5 5 5 5 5 5 5 6 6 6 6
3 3 4 4 4 4 4 4 3 4 4 4 3 5 4 3 3 2 3 3 3 4 5 2 2 2 3 4 5 3 3 6 6 6 5 5 5 5 6 6 6 6 7
3 4 4 4 4 4 4 4 4 4 5 5 4 5 5 4 3 3 3 3 3 3 5 4 3 2 3 4 4 3 3 3 4 7 6 6 6 5 6 6 7 7 7
3 4 4 4 4 4 4 5 5 5 5 6 5 5 6 5 5 4 4 4 4 3 4 5 4 3 4 4 4 4 4 4 4 7 7 6 6 6 6 6 6 7 7
4 4 4 4 5 5 5 5 5 5 5 5 6 6 6 6 6 5 5 5 4 4 3 4 5 3 3 3 3 4 4 3 4 5 7 6 6 6 6 6 6 6 7
4 5 5 5 5 5 5 5 5 5 5 5 6 6 7 7 7 6 6 6 4 4 4 4 4 4 4 3 3 3 4 3 3 3 5 5 6 7 7 8 7 7 7
5 5 4 4 5 5 5 5 5 6 6 6 6 6 7 8 9 8 7 6 5 5 4 4 4 4 4 4 4 3 4 3 4 3 3 3 3 3 4 6 6 7 7
4 4 5 5 5 5 7 9 6 5 6 6 6 6 7 8 10 11 12 11 10 8 6 5 5 6 6 5 4 4 4 3 5 3 3 4 3 4 4 4 7 8 8
4 5 5 5 5 6 8 9 9 6 6 6 6 6 6 6 8 6 8 10 10 12 11 8 7 7 6 6 5 6 5 5 5 4 3 5 3 4 4 5 8 8 8
4 4 5 5 5 6 8 9 9 6 6 6 7 7 7 6 7 6 6 6 7 7 8 7 7 7 7 6 6 6 6 5 4 4 3 4 3 3 4 4 7 8 9
4 4 4 5 5 6 9 9 8 5 5 6 7 7 7 7 10 10 6 6 6 6 8 10 10 9 10 10 8 4 4 4 5 4 2 3 3 3 3 4 5 7 8
4 4 5 5 5 6 9 10 9 5 5 5 5 6 10 10 11 11 7 6 7 6 5 5 6 7 6 7 9 6 5 5 4 4 3 2 2 2 3 3 3 3 4
Wind_Direction
53 55 61 62 37 23 21 17 22 19 23 26 28 31 31 38 48 58 49 39 38 35 41 53 64 83 93 96 86 79 78 74 73 75 75 70 64 56 59 64 74 94 98
57 48 60 61 39 22 14 25 18 21 20 28 23 32 34 28 45 61 70 42 33 30 26 36 54 74 99 109 103 93 79 69 69 70 76 72 64 58 52 56 64 64 79
69 61 51 63 28 13 13 12 34 43 34 30 23 19 26 33 39 54 63 63 26 19 17 12 44 66 112 115 102 94 90 78 66 60 63 61 65 54 45 49 62 57 47
74 83 63 30 17 29 24 359 35 51 41 43 23 4 10 18 17 53 61 54 52 9 355 3 17 53 100 118 103 95 94 82 66 58 54 56 59 49 33 43 51 49 37
89 96 104 24 7 56 36 345 23 55 55 33 351 355 6 352 310 17 56 46 46 45 11 357 4 38 63 85 106 94 84 82 71 63 60 56 51 44 30 40 33 26 13
131 120 137 100 13 72 65 9 21 30 72 18 327 356 311 258 271 294 115 42 30 59 77 116 329 301 47 52 66 31 38 78 87 86 73 52 35 22 9 18 8 349 334
164 155 153 154 156 197 195 209 106 97 78 46 46 347 312 244 187 158 92 93 312 291 225 199 224 273 234 235 56 8 329 283 233 117 71 38 0 337 330 333 337 335 335
182 187 175 177 181 189 211 204 119 152 210 80 92 63 326 316 326 357 37 75 355 351 327 327 194 284 214 180 23 350 330 311 267 255 271 302 319 310 283 293 309 311 317
202 197 198 186 188 186 205 219 184 168 183 194 132 142 166 217 308 295 321 30 25 1 339 348 13 351 293 161 173 249 307 305 282 279 273 273 282 294 289 279 290 294 304
217 213 202 196 196 197 202 223 210 186 174 193 202 226 210 178 191 280 288 291 321 324 334 342 350 352 345 215 147 59 309 286 277 275 275 275 275 274 281 289 286 289 292
213 216 209 198 198 202 203 210 218 198 192 195 200 221 257 278 208 205 251 257 283 285 312 317 321 296 334 304 178 188 323 299 274 269 269 271 281 284 288 294 299 301 295
213 213 222 211 205 202 203 209 209 212 210 206 210 210 212 219 224 230 243 244 260 273 286 277 270 263 262 313 288 322 309 304 292 274 264 264 273 283 288 295 301 310 309
216 213 222 220 216 211 205 207 212 216 222 214 211 219 223 236 227 241 244 253 270 276 266 256 243 242 285 359 302 291 264 292 303 293 275 270 275 280 284 288 293 299 304
216 212 217 221 224 219 215 207 219 221 226 224 223 221 228 235 231 228 221 232 269 270 251 247 273 238 296 319 323 309 247 265 278 288 289 286 284 284 289 292 292 293 296
217 206 214 218 223 223 216 205 215 220 220 230 225 221 226 233 230 230 222 207 217 251 253 241 243 248 298 285 289 295 272 265 265 273 280 285 287 282 280 283 286 288 290
220 205 216 221 221 225 223 211 213 218 218 228 233 224 224 227 229 226 226 231 232 237 255 239 245 273 285 288 288 287 277 289 264 265 269 275 281 276 275 279 279 281 282
225 214 215 216 220 222 221 215 219 220 223 227 236 234 230 224 225 226 225 228 239 239 258 273 271 264 273 278 284 280 278 260 250 255 258 264 271 277 278 278 278 278 278
237 225 219 220 223 225 221 221 221 223 225 228 230 232 237 231 229 229 226 229 235 238 247 269 275 265 266 261 267 271 279 268 258 256 255 257 263 267 275 280 279 279 277
240 231 221 224 228 226 224 228 226 225 226 231 231 228 233 233 230 228 229 231 235 243 240 251 268 270 267 260 265 272 273 272 270 259 253 252 258 266 270 277 281 285 285
235 230 227 226 229 229 228 228 228 229 227 233 235 236 233 233 233 227 229 229 231 235 234 239 256 258 260 256 250 260 276 275 268 263 256 261 262 266 267 272 274 277 280
237 234 231 230 231 228 228 226 224 225 225 230 234 238 238 238 243 241 233 224 224 227 229 237 245 257 254 247 245 251 264 277 267 246 235 241 245 236 243 257 267 273 273
234 231 230 228 232 237 238 237 235 229 228 230 234 235 238 239 244 251 248 243 235 227 225 230 241 243 246 246 248 254 257 265 268 235 225 240 228 236 237 230 255 262 263
232 234 231 226 230 236 237 239 240 238 231 232 235 233 238 239 242 237 244 250 251 251 245 236 232 238 242 242 243 248 248 252 266 252 230 252 230 242 242 253 259 258 263
231 233 234 230 233 237 239 241 243 240 235 235 235 232 233 233 236 238 230 233 237 245 251 248 239 240 244 241 235 241 247 257 275 263 224 253 241 249 264 246 250 255 263
235 236 238 232 234 237 239 243 244 236 238 240 238 235 233 229 238 244 234 228 237 246 260 262 261 258 260 262 259 252 244 247 269 263 224 241 258 275 269 252 244 254 262
236 238 244 237 235 236 240 243 242 231 237 240 238 238 240 240 238 238 226 220 230 236 239 259 262 263 259 257 260 245 230 235 256 260 232 226 250 278 285 271 242 235 245